Probability
3 5 6 3 1 0 0 0 0 0 0 0 0 0 0 0 1 2 1 0 0 0 0 0 0 0 0 0 0 0 0 0 0 0 0 0 0 0 0 0 0 0 0
4 6 6 3 1 0 0 0 0 0 0 0 0 1 1 1 1 2 1 0 0 0 0 0 0 0 0 0 0 0 0 0 0 0 0 0 0 0 0 0 0 0 0
4 4 4 2 1 1 0 1 1 1 0 0 1 2 2 2 1 1 1 0 0 0 0 0 0 0 0 0 0 0 0 0 0 0 0 0 0 0 0 0 0 0 0
4 3 2 2 1 1 0 1 1 1 0 0 1 2 3 3 1 0 0 0 0 0 0 0 0 0 0 0 0 0 0 0 0 0 0 1 1 1 0 0 0 0 0
4 3 2 2 2 1 0 0 0 0 0 0 1 2 2 2 2 1 0 0 0 0 0 0 0 0 0 0 0 0 0 0 0 0 0 1 1 1 0 0 0 0 0
3 3 4 4 4 2 1 0 0 0 0 0 0 1 1 1 2 1 0 0 0 0 0 0 0 0 0 0 0 0 0 1 1 1 0 0 0 0 0 0 0 0 0
3 3 5 7 6 3 1 0 0 0 0 0 0 0 0 0 1 1 0 0 0 0 0 0 0 0 0 0 0 0 1 2 2 1 1 0 0 0 0 0 0 0 0
3 3 6 8 6 3 1 0 0 0 0 0 0 0 0 0 0 0 0 0 0 0 0 0 0 0 0 0 1 1 3 3 2 1 1 1 0 0 0 0 0 0 0
3 3 5 6 5 3 1 0 0 0 0 0 0 0 0 0 0 0 0 0 0 0 0 0 0 0 0 1 1 1 3 3 2 0 0 1 1 0 0 0 0 0 0
3 3 3 3 2 1 1 0 0 0 0 1 1 1 0 0 0 0 0 0 0 0 0 0 0 1 1 2 2 1 1 1 1 1 1 2 2 1 1 1 1 0 0
2 3 3 2 1 1 0 0 0 0 0 1 2 1 0 0 0 0 0 0 0 0 0 0 0 1 2 4 3 1 0 0 0 1 2 2 2 2 2 2 1 0 0
3 3 3 3 3 2 1 1 0 0 0 1 1 1 0 0 0 0 0 0 0 0 0 0 0 0 2 3 2 0 0 0 0 1 1 1 1 2 2 1 1 0 0
4 4 3 3 3 2 2 2 1 0 0 0 0 0 0 0 0 0 0 0 0 0 0 0 0 0 1 1 1 0 0 0 0 0 0 0 0 1 1 0 0 0 0
3 3 3 3 2 1 1 1 1 0 0 0 0 0 0 0 0 0 0 0 0 0 0 0 0 0 0 0 0 0 0 0 0 0 0 0 0 0 0 0 0 0 0
2 3 3 3 1 0 0 0 0 0 0 0 0 0 0 0 0 0 0 0 0 0 0 0 0 0 0 0 0 0 0 0 0 0 0 0 0 0 0 0 0 0 0
1 2 3 2 1 0 0 0 0 0 0 0 0 0 0 0 0 0 0 0 0 0 0 0 0 0 0 0 0 0 0 0 0 0 0 0 0 0 0 0 0 0 0
1 1 1 1 1 0 0 0 0 0 0 0 0 0 0 0 0 0 0 0 0 0 0 0 0 0 0 0 0 0 0 0 0 0 0 0 0 0 0 0 0 0 0
1 0 0 0 0 0 0 0 0 0 0 0 0 0 0 0 0 0 0 0 0 0 0 0 0 0 0 0 0 0 0 0 0 0 0 0 0 0 0 0 0 0 0
0 0 0 0 0 0 0 0 0 0 0 0 0 0 0 0 0 0 0 0 0 0 0 0 0 0 0 0 0 0 0 0 0 0 0 0 0 0 0 0 0 0 0
0 0 0 0 0 0 0 0 0 0 0 0 0 0 0 0 0 0 0 0 0 0 0 0 0 0 0 0 0 0 0 0 0 0 0 0 0 0 0 0 0 0 0
0 0 0 0 0 0 0 0 0 0 0 0 0 0 0 0 0 0 0 0 1 0 0 0 0 0 0 0 0 0 0 0 0 0 0 0 0 0 0 0 0 0 0
1 0 0 0 0 0 0 0 0 0 0 0 0 0 0 0 0 0 0 0 0 0 0 0 0 0 0 0 0 0 0 0 0 0 0 0 0 0 0 0 0 0 0
2 1 1 0 0 0 0 0 0 0 0 0 1 2 2 2 2 2 1 1 1 1 0 0 0 0 1 1 2 1 0 0 0 0 0 0 0 0 0 0 0 0 0
3 3 3 1 1 0 0 0 0 0 0 0 1 3 4 4 4 3 2 3 3 2 1 0 0 0 1 2 2 1 0 0 0 0 0 0 0 0 0 0 0 0 0
4 5 5 4 3 2 0 0 0 0 0 1 2 3 4 4 3 2 3 4 5 4 1 0 0 0 0 1 1 1 0 0 0 1 1 1 1 1 1 0 0 0 0
6 6 6 6 5 3 1 0 0 0 1 2 3 3 3 3 2 2 3 5 6 4 1 0 0 0 0 0 0 0 0 0 0 1 2 2 2 2 2 1 0 0 0
Wind_Speed
3 3 2 2 2 2 3 2 1 2 2 3 2 2 1 1 1 1 5 9 8 7 7 7 7 8 8 8 8 8 8 8 7 7 8 8 8 8 8 8 8 8 7
3 3 3 2 2 2 1 2 2 2 2 1 2 2 2 1 1 1 2 7 9 8 7 7 7 8 8 8 8 8 7 8 7 7 7 8 8 8 8 8 8 8 7
3 3 2 3 2 2 2 2 2 2 2 2 2 2 2 1 1 1 2 2 5 8 8 8 8 8 9 9 8 8 7 7 7 7 8 8 8 8 8 8 8 8 7
3 3 2 2 2 2 2 2 2 2 1 1 1 1 1 1 2 2 2 2 2 3 7 8 7 7 9 9 9 9 8 8 8 8 8 8 9 8 8 8 8 8 8
3 3 2 2 3 2 2 2 2 1 1 1 1 2 1 1 2 2 1 2 2 2 2 6 7 6 7 8 9 9 10 10 9 9 9 9 9 9 9 9 8 8 8
4 3 2 2 3 2 2 1 1 1 1 1 1 1 1 1 2 2 2 2 2 2 2 2 4 5 6 6 7 8 10 11 11 10 10 9 10 10 10 10 9 9 9
4 2 2 3 2 2 1 2 2 3 2 1 2 2 2 2 2 1 1 1 1 1 1 1 2 2 4 7 6 6 8 9 10 11 10 9 9 10 10 11 11 11 11
4 3 2 2 2 2 2 2 2 1 1 2 2 2 3 3 3 2 1 2 1 1 1 2 2 2 2 2 4 5 6 7 8 9 10 9 8 8 9 11 11 12 12
4 3 3 2 1 2 2 2 2 2 2 2 1 2 2 1 3 3 2 2 2 1 1 1 1 2 3 2 2 4 4 4 6 7 9 9 9 9 9 9 10 11 12
5 4 4 3 1 1 2 2 2 1 2 2 2 1 2 2 2 2 4 3 3 2 1 0 1 1 1 1 2 2 2 2 3 4 6 7 8 8 9 10 10 11 11
5 5 4 3 2 1 2 1 1 1 1 1 1 2 1 1 3 2 2 3 3 2 2 2 1 1 1 1 1 4 3 2 2 3 4 5 7 8 9 10 11 12 12
5 6 5 4 3 2 2 2 1 2 1 1 1 1 1 1 1 1 1 2 2 2 2 2 1 1 1 1 3 5 3 2 1 2 3 4 5 6 8 9 11 12 13
5 6 5 4 3 3 2 2 2 1 1 1 1 1 1 1 1 2 1 1 2 2 2 2 1 0 0 1 3 3 4 3 1 2 2 2 3 5 6 7 9 10 11
5 7 6 5 4 4 3 3 2 3 2 1 1 1 1 0 1 1 2 2 3 3 3 2 1 1 1 0 3 3 3 4 1 1 2 3 3 4 5 6 7 8 8
6 7 6 6 5 4 3 3 2 2 2 2 3 3 1 1 0 1 1 3 4 3 2 4 2 2 1 1 1 2 1 4 2 2 3 4 5 5 6 7 7 7 7
6 8 7 6 5 5 4 4 4 3 3 2 1 1 1 1 0 1 1 1 3 4 2 1 1 1 2 2 2 2 3 5 6 5 4 4 5 6 6 7 7 7 8
8 8 7 6 6 5 5 4 3 4 4 3 3 3 2 1 1 1 1 1 1 2 3 1 1 1 1 4 2 3 5 5 4 8 5 5 5 6 7 7 7 8 8
8 8 7 7 7 6 5 5 5 5 4 4 3 3 3 2 2 2 1 1 1 2 4 3 2 2 2 3 3 5 6 5 5 6 7 7 7 8 8 8 8 9 9
8 8 8 7 7 6 6 5 5 5 4 3 3 3 3 3 3 2 2 2 2 2 3 3 3 2 3 3 4 6 6 5 8 5 9 11 10 10 10 10 10 10 11
9 8 8 7 7 7 7 6 6 5 4 4 3 3 4 4 3 3 3 3 3 3 3 4 4 3 3 3 4 5 5 4 5 6 5 5 8 12 13 13 13 12 12
10 9 8 8 8 7 7 7 7 7 6 5 5 5 4 2 2 3 4 3 3 5 4 4 4 4 3 3 4 4 5 6 5 5 6 6 6 7 9 13 15 13 12
10 9 9 9 9 7 6 5 6 6 6 6 6 5 5 6 6 7 6 6 6 6 6 5 5 4 4 5 4 6 6 7 6 3 5 7 7 7 7 8 5 9 11
11 10 10 10 9 7 9 8 7 7 7 6 6 6 6 4 6 7 8 10 10 10 9 8 8 7 6 5 6 8 7 8 8 8 7 9 8 8 8 6 7 8 10
11 10 10 10 9 9 11 10 8 9 8 7 8 8 7 6 6 6 7 7 8 8 9 10 8 9 8 7 7 8 9 9 10 9 8 9 8 8 8 7 7 11 11
11 11 10 10 10 9 12 11 10 9 8 9 9 9 9 9 5 5 8 9 9 8 8 9 9 9 8 7 7 8 9 9 10 8 6 8 9 9 8 9 6 11 12
11 10 10 10 11 10 12 13 13 9 8 8 8 9 9 10 6 8 9 9 9 8 7 6 9 11 11 12 12 11 10 10 10 9 5 6 9 9 9 7 6 6 8
Wind_Direction
161 145 139 160 178 158 171 180 186 163 190 188 197 189 214 202 175 165 130 160 173 179 184 188 188 185 185 184 183 184 183 178 177 176 175 173 173 171 169 171 172 170 170
152 155 164 171 173 179 163 190 170 186 205 184 200 192 235 210 174 195 154 161 174 181 188 196 201 198 193 190 191 197 196 191 187 187 187 183 181 180 179 180 180 178 177
153 174 167 177 169 170 169 192 175 199 206 198 198 193 208 216 160 184 194 176 171 180 193 204 208 205 199 198 200 203 206 202 198 196 194 191 189 188 189 189 189 187 184
162 189 183 170 164 186 184 172 203 200 187 211 205 228 192 181 182 194 191 186 194 185 185 195 210 211 202 202 207 210 210 210 207 205 202 199 197 196 197 197 198 195 193
167 192 184 142 195 195 194 214 154 213 185 189 191 179 195 185 182 197 185 185 183 205 195 174 191 200 204 207 211 219 217 212 213 214 214 209 204 203 204 205 206 205 204
160 181 170 164 205 190 186 182 152 178 199 206 235 122 170 163 185 165 204 176 179 191 200 177 180 181 188 199 207 218 222 218 214 217 221 221 216 211 211 212 212 213 213
148 173 156 149 211 168 180 192 202 176 188 189 225 195 172 158 138 165 180 179 155 156 151 188 208 197 181 188 197 209 216 216 215 216 217 220 223 221 219 219 219 219 219
152 157 145 168 163 153 168 188 215 240 186 200 242 230 204 169 164 112 130 136 102 133 175 190 185 191 216 196 176 194 209 215 218 218 217 217 222 224 228 227 226 225 223
152 130 145 137 150 196 150 187 205 221 208 185 255 269 256 195 153 140 127 106 106 97 121 109 175 185 202 198 193 177 192 207 216 222 218 213 216 222 229 236 235 233 231
156 149 146 137 167 151 134 193 123 228 228 195 169 257 323 354 265 161 156 137 138 132 85 43 83 152 186 180 135 120 135 183 218 224 224 220 220 223 225 233 240 241 239
160 156 151 148 159 151 109 71 98 298 235 249 205 187 169 198 257 247 152 154 155 133 118 109 81 83 113 125 163 106 129 170 208 225 225 222 225 227 227 232 238 241 240
162 160 158 156 165 138 130 126 126 126 21 11 301 256 236 239 243 247 191 181 154 125 116 100 113 97 110 120 94 101 132 149 188 224 237 239 233 231 231 234 239 243 244
165 162 160 159 151 138 142 140 136 91 116 122 236 262 312 328 325 300 266 198 176 159 156 173 127 139 102 100 107 119 137 133 184 235 242 245 243 241 238 242 247 250 251
159 155 160 160 156 157 156 154 163 150 136 152 130 11 268 64 323 310 295 270 234 198 180 149 145 145 26 353 77 249 147 133 153 225 245 243 247 247 248 250 252 254 256
157 162 164 162 160 159 158 179 145 151 154 187 166 169 219 120 245 307 295 293 293 277 201 154 198 119 284 39 57 259 217 132 195 238 247 251 254 255 255 256 254 251 249
161 165 167 166 164 164 167 185 168 147 160 150 91 67 290 205 343 256 281 292 296 298 303 97 194 57 3 305 150 284 272 185 214 219 233 246 255 259 258 258 256 255 254
166 170 170 170 171 171 170 182 184 164 177 162 173 167 186 331 283 256 242 262 274 285 277 263 227 160 259 291 300 288 269 261 224 187 207 237 249 255 257 257 256 256 256
174 172 174 177 181 176 178 186 188 177 182 180 182 183 195 185 204 271 283 280 303 315 279 284 277 251 243 259 269 275 275 271 281 179 198 227 241 249 253 256 257 257 257
178 176 180 184 185 181 185 191 193 189 191 194 199 206 209 207 222 224 260 264 255 242 268 268 266 284 268 269 277 264 267 270 275 231 203 216 227 238 246 251 253 254 255
182 183 186 188 188 189 191 194 196 197 202 205 212 221 220 219 221 227 233 243 263 271 255 259 265 259 256 253 265 274 274 256 272 285 277 253 224 225 236 240 241 244 248
186 185 188 190 193 197 198 196 199 200 205 211 212 219 220 235 334 286 287 274 256 259 260 260 267 268 276 291 285 293 293 290 273 270 280 275 255 249 234 228 229 233 238
190 187 193 195 200 204 154 179 230 213 211 217 218 221 215 207 211 225 257 276 287 274 281 285 278 288 290 287 294 291 293 293 293 288 285 284 280 275 269 264 206 202 227
189 193 197 201 205 187 158 183 220 239 226 223 225 230 241 209 209 227 215 220 236 243 254 274 283 286 288 289 294 287 287 293 297 302 292 284 280 276 272 266 184 210 231
193 197 200 203 208 192 175 190 203 230 236 229 229 230 240 244 237 246 252 244 244 232 226 232 255 268 276 285 277 277 283 276 268 258 254 273 282 282 283 279 213 215 230
196 200 202 205 210 197 180 189 201 224 226 230 232 231 234 238 212 211 249 254 257 255 235 231 249 264 281 280 276 275 273 274 278 279 254 265 282 286 283 276 249 207 222
200 204 204 206 210 209 183 188 203 232 228 229 225 228 229 238 209 197 238 250 254 259 268 242 229 239 246 243 229 241 263 273 280 284 285 276 282 288 287 279 277 252 236